Weather History for KLNP - April, 2014

Change the Weather History Date:

Tuesday, April 1, 2014

  Actual Average Record
Temperature  
Mean Temperature 60 °F -  
Max Temperature 73 °F 57 °F 73 °F (2014)
Min Temperature 48 °F 38 °F 26 °F (1997)
Degree Days  
Heating Degree Days 4    
Growing Degree Days 10 (Base 50)    
Moisture  
Dew Point 30 °F    
Average Humidity 31    
Maximum Humidity 43    
Minimum Humidity 22    
Precipitation  
Precipitation 0.00 in - - ()
Sea Level Pressure  
Sea Level Pressure 30.11 in    
Wind  
Wind Speed 7 mph (SW)    
Max Wind Speed 21 mph    
Max Gust Speed 26 mph    
Visibility 10 miles    
Events      
Averages and records for this station are not official NWS values.
T = Trace of Precipitation, MM = Missing Value Source: NWS Daily Summary

Daily Weather History Graph

Daily Weather History Graph

Search for Another Location

Airport or City:

Trip Planner

Search our weather history database for the weather conditions in past years. The results will help you decide how hot, cold, wet, or windy it might be!

Date:

Astronomy

Apr. 01, 2014 Rise Set
Actual Time 7:15 AM EDT 7:52 PM EDT
Civil Twilight 6:49 AM EDT 8:18 PM EDT
Nautical Twilight 6:18 AM EDT 8:49 PM EDT
Astronomical Twilight 5:47 AM EDT 9:21 PM EDT
Moon 8:20 AM EDT (4/1) 10:10 PM EDT (4/1)
Length of Visible Light 13h 29m
Length of Day
12h 36m
Waxing Crescent, 4% of the Moon is Illuminated
Apr 1
Waxing Crescent
Apr 7
First Quarter
Apr 15
Full
Apr 22
Last Quarter
Apr 29
New

Hourly Weather History & Observations

Time (EDT) Temp. Dew Point Humidity Pressure Visibility Wind Dir Wind Speed Gust Speed Precip Events Conditions
12:15 AM 55.4 °F 23.0 °F 29% 30.09 in 10.0 mi SSE 5.8 mph - N/A   Clear
12:35 AM 55.4 °F 23.0 °F 29% 30.09 in 10.0 mi South 5.8 mph - N/A   Clear
12:55 AM 53.6 °F 23.0 °F 30% 30.09 in 10.0 mi South 5.8 mph - N/A   Clear
1:15 AM 53.6 °F 23.0 °F 30% 30.10 in 10.0 mi SSW 6.9 mph - N/A   Clear
1:35 AM 51.8 °F 23.0 °F 33% 30.09 in 10.0 mi SSW 4.6 mph - N/A   Clear
2:15 AM 51.8 °F 23.0 °F 33% 30.09 in 10.0 mi South 4.6 mph - N/A   Clear
2:35 AM 50.0 °F 23.0 °F 35% 30.09 in 10.0 mi SW 4.6 mph - N/A   Scattered Clouds
2:55 AM 50.0 °F 24.8 °F 37% 30.10 in 10.0 mi SW 5.8 mph - N/A   Mostly Cloudy
3:15 AM 48.2 °F 26.6 °F 43% 30.10 in 10.0 mi SW 6.9 mph - N/A   Overcast
3:35 AM 50.0 °F 26.6 °F 40% 30.11 in 10.0 mi SW 4.6 mph - N/A   Overcast
3:55 AM 50.0 °F 28.4 °F 43% 30.10 in 10.0 mi SW 5.8 mph - N/A   Mostly Cloudy
4:15 AM 50.0 °F 28.4 °F 43% 30.10 in 10.0 mi SW 8.1 mph - N/A   Scattered Clouds
4:35 AM 51.8 °F 24.8 °F 35% 30.10 in 10.0 mi SW 8.1 mph - N/A   Clear
4:55 AM 51.8 °F 26.6 °F 38% 30.10 in 10.0 mi SW 5.8 mph - N/A   Clear
5:15 AM 51.8 °F 26.6 °F 38% 30.10 in 10.0 mi WSW 6.9 mph - N/A   Clear
5:35 AM 51.8 °F 24.8 °F 35% 30.10 in 10.0 mi West 5.8 mph - N/A   Mostly Cloudy
5:55 AM 51.8 °F 26.6 °F 38% 30.11 in 10.0 mi SW 3.5 mph - N/A   Overcast
6:15 AM 53.6 °F 24.8 °F 33% 30.12 in 10.0 mi WSW 8.1 mph - N/A   Overcast
6:35 AM 53.6 °F 23.0 °F 30% 30.12 in 10.0 mi West 4.6 mph - N/A   Overcast
6:55 AM 53.6 °F 26.6 °F 35% 30.14 in 10.0 mi SSW 4.6 mph - N/A   Overcast
7:15 AM 53.6 °F 24.8 °F 33% 30.15 in 10.0 mi WSW 5.8 mph - N/A   Overcast
7:35 AM 53.6 °F 21.2 °F 28% 30.15 in 10.0 mi Calm Calm - N/A   Overcast
7:55 AM 53.6 °F 23.0 °F 30% 30.15 in 10.0 mi ENE 4.6 mph - N/A   Overcast
8:15 AM 55.4 °F 23.0 °F 29% 30.15 in 10.0 mi Calm Calm - N/A   Overcast
8:35 AM 55.4 °F 23.0 °F 29% 30.15 in 10.0 mi South 5.8 mph - N/A   Overcast
8:55 AM 59.0 °F 26.6 °F 29% 30.15 in 10.0 mi SSE 4.6 mph - N/A   Overcast
9:15 AM 59.0 °F 26.6 °F 29% 30.14 in 10.0 mi South 8.1 mph - N/A   Overcast
9:35 AM 59.0 °F 30.2 °F 34% 30.14 in 10.0 mi South 4.6 mph - N/A   Overcast
9:55 AM 60.8 °F 32.0 °F 34% 30.14 in 10.0 mi SSW 8.1 mph - N/A   Mostly Cloudy
10:15 AM 60.8 °F 32.0 °F 34% 30.14 in 10.0 mi SW 5.8 mph - N/A   Mostly Cloudy
10:35 AM 60.8 °F 32.0 °F 34% 30.14 in 10.0 mi South 9.2 mph - N/A   Mostly Cloudy
10:55 AM 62.6 °F 30.2 °F 30% 30.13 in 10.0 mi South 9.2 mph - N/A   Scattered Clouds
11:15 AM 62.6 °F 30.2 °F 30% 30.13 in 10.0 mi SSW 10.4 mph - N/A   Unknown
11:35 AM 62.6 °F 30.2 °F 30% 30.14 in 10.0 mi WSW 20.7 mph 25.3 mph N/A   Clear
11:55 AM 64.4 °F 30.2 °F 28% 30.12 in 10.0 mi SW 20.7 mph 25.3 mph N/A   Clear
12:15 PM 64.4 °F 32.0 °F 30% 30.12 in 10.0 mi SW 16.1 mph 21.9 mph N/A   Clear
12:35 PM 66.2 °F 32.0 °F 28% 30.12 in 10.0 mi SW 17.3 mph 24.2 mph N/A   Clear
12:55 PM 66.2 °F 32.0 °F 28% 30.12 in 10.0 mi SW 17.3 mph 26.5 mph N/A   Clear
1:15 PM 68.0 °F 32.0 °F 26% 30.12 in 10.0 mi SSW 16.1 mph 21.9 mph N/A   Clear
1:35 PM 68.0 °F 33.8 °F 28% 30.12 in 10.0 mi SW 17.3 mph 26.5 mph N/A   Clear
1:55 PM 69.8 °F 33.8 °F 27% 30.11 in 10.0 mi SSW 17.3 mph 21.9 mph N/A   Clear
2:15 PM 69.8 °F 33.8 °F 27% 30.11 in 10.0 mi SW 12.7 mph 20.7 mph N/A   Clear
2:35 PM 69.8 °F 33.8 °F 27% 30.10 in 10.0 mi SSW 12.7 mph 18.4 mph N/A   Clear
2:55 PM 69.8 °F 33.8 °F 27% 30.10 in 10.0 mi WSW 13.8 mph 20.7 mph N/A   Clear
3:15 PM 71.6 °F 32.0 °F 23% 30.09 in 10.0 mi SW 8.1 mph 12.7 mph N/A   Clear
3:35 PM 71.6 °F 32.0 °F 23% 30.09 in 10.0 mi SW 15.0 mph 19.6 mph N/A   Clear
3:55 PM 71.6 °F 32.0 °F 23% 30.08 in 10.0 mi SSW 11.5 mph 17.3 mph N/A   Clear
4:15 PM 73.4 °F 32.0 °F 22% 30.08 in 10.0 mi SW 13.8 mph 17.3 mph N/A   Clear
4:35 PM 73.4 °F 32.0 °F 22% 30.08 in 10.0 mi WSW 13.8 mph 17.3 mph N/A   Clear
4:55 PM 73.4 °F 32.0 °F 22% 30.08 in 10.0 mi SW 11.5 mph 18.4 mph N/A   Clear
5:15 PM 73.4 °F 32.0 °F 22% 30.08 in 10.0 mi SSW 12.7 mph 18.4 mph N/A   Clear
5:35 PM 73.4 °F 32.0 °F 22% 30.07 in 10.0 mi SW 8.1 mph - N/A   Scattered Clouds
5:55 PM 73.4 °F 32.0 °F 22% 30.07 in 10.0 mi SSW 11.5 mph 16.1 mph N/A   Clear
6:15 PM 73.4 °F 32.0 °F 22% 30.07 in 10.0 mi SW 12.7 mph 17.3 mph N/A   Clear
6:35 PM 71.6 °F 32.0 °F 23% 30.08 in 10.0 mi SW 9.2 mph - N/A   Clear
6:55 PM 71.6 °F 32.0 °F 23% 30.08 in 10.0 mi SW 8.1 mph - N/A   Clear
7:15 PM 68.0 °F 32.0 °F 26% 30.08 in 10.0 mi SW 8.1 mph - N/A   Clear
7:35 PM 68.0 °F 32.0 °F 26% 30.09 in 10.0 mi SW 6.9 mph - N/A   Clear
7:55 PM 64.4 °F 32.0 °F 30% 30.09 in 10.0 mi SW 4.6 mph - N/A   Clear
8:15 PM 64.4 °F 32.0 °F 30% 30.09 in 10.0 mi South 3.5 mph - N/A   Clear
8:35 PM 62.6 °F 32.0 °F 32% 30.09 in 10.0 mi SSW 3.5 mph - N/A   Clear
8:55 PM 62.6 °F 32.0 °F 32% 30.10 in 10.0 mi South 4.6 mph - N/A   Clear
9:15 PM 62.6 °F 32.0 °F 32% 30.11 in 10.0 mi South 6.9 mph - N/A   Clear
9:35 PM 62.6 °F 32.0 °F 32% 30.11 in 10.0 mi South 4.6 mph - N/A   Clear
9:55 PM 60.8 °F 33.8 °F 36% 30.12 in 10.0 mi SW 4.6 mph - N/A   Clear
10:15 PM 60.8 °F 35.6 °F 39% 30.12 in 10.0 mi SSW 6.9 mph - N/A   Clear
10:35 PM 59.0 °F 35.6 °F 42% 30.12 in 10.0 mi SW 4.6 mph - N/A   Clear
10:55 PM 59.0 °F 35.6 °F 42% 30.12 in 10.0 mi WSW 4.6 mph - N/A   Clear
11:15 PM 59.0 °F 35.6 °F 42% 30.12 in 10.0 mi SW 4.6 mph - N/A   Clear
11:35 PM 59.0 °F 35.6 °F 42% 30.12 in 10.0 mi SSW 4.6 mph - N/A   Clear
11:55 PM 59.0 °F 35.6 °F 42% 30.12 in 10.0 mi SSW 4.6 mph - N/A   Clear